Find Starlink 32765

NORAD ID: 62747 Int'l Des: 2025-014 Owner: SPXS Country: US Constellation: starlink operational
LEOCIRCULAR

当前视图

正在加载3D地球...

About Starlink 32765

Starlink 32765 (NORAD 62747) is a starlink constellation satellite (v2 mini) launched Jan 21, 2025 by SPXS of US. It operates in LEO, CIRCULAR orbit with a mass of 730.00 kg.

即将过境

Passes for default location (London). Set your location on the main map for personalized predictions.

高度历史

Loading altitude history...

两行轨道根数

1 62747U 25014N 26264.04582932 .00013362 00000-0 49401-3 0 9997
2 62747 43.0016 131.1948 0001616 274.4347 85.6320 15.27593776 93136
Epoch: Sep 21, 2026 • Age: 15 hours

当前状态

高度 491.7 km
远地点 / 近地点 N/A
速度 7.62 km/s
星下点 -34.29°S, 167.92°W
发射日期 Jan 21, 2025
运行时间 1.6 years
类型 internet

技术详情

分类 Payload
质量 730.00 kg
干质量 700.00 kg
长度 0.30 m
跨度 29.00 m
形状 ? Box + pan
制造商 SPXS
平台类型 Starlink V2M
阶段状态 In Orbit
所有者/国家 SPXS/US

Most Searched